Weather History for Flagstaff, AZ

Change the Weather History Date:

Saturday, May 5, 2012

  Actual Average Record
Temperature  
Mean Temperature 51 °F 49 °F  
Max Temperature 68 °F 64 °F 86 °F (1947)
Min Temperature 34 °F 33 °F 18 °F (1950)
Degree Days  
Heating Degree Days 14 16  
Month to date heating degree days 68 84  
Since 1 July heating degree days 6177 6440  
Cooling Degree Days 0 0  
Month to date cooling degree days 0 0  
Year to date cooling degree days 0 0  
Moisture  
Dew Point 20 °F    
Average Humidity 36    
Maximum Humidity 56    
Minimum Humidity 16    
Precipitation  
Precipitation 0.00 in 0.02 in 0.55 in (1992)
Month to date precipitation 0.00 0.12  
Year to date precipitation 4.46 7.60  
Snow  
Snow 0.00 in 0.00 in 4.60 in (1969)
Month to date snowfall 0.0 0.3  
Since 1 July snowfall 102.9 101.3  
Snow Depth 0.00 in    
Sea Level Pressure  
Sea Level Pressure 29.94 in    
Wind  
Wind Speed 8 mph (WSW)    
Max Wind Speed 26 mph    
Max Gust Speed 36 mph    
Visibility 10 miles    
Events      
T = Trace of Precipitation, MM = Missing Value Source: NWS Daily Summary

Daily Weather History Graph

Daily Weather History Graph

Search for Another Location

Airport:

Trip Planner

Search our weather history database for the weather conditions in past years. The results will help you decide how hot, cold, wet, or windy it might be!

Date:

Astronomy

May. 05, 2012 Rise Set
Actual Time 5:30 AM MST 7:16 PM MST
Civil Twilight 5:03 AM MST 7:43 PM MST
Nautical Twilight 4:30 AM MST 8:16 PM MST
Astronomical Twilight 3:55 AM MST 8:52 PM MST
Moon 7:12 PM MST (5/5) 4:56 AM MST (5/5)
Length of Visible Light 14h 40m
Length of Day
13h 45m
Full, 100% of the Moon is Illuminated
May 5
Full
May 5
Full
May 12
Last Quarter
May 20
New
May 28
First Quarter

Hourly Weather History & Observations

Time (MST) Temp. Windchill Dew Point Humidity Pressure Visibility Wind Dir Wind Speed Gust Speed Precip Events Conditions
12:57 AM 48.9 °F - 17.1 °F 28% 29.91 in 10.0 mi WSW 6.9 mph - N/A   Clear
1:57 AM 42.8 °F - 19.4 °F 39% 30.15 in 10.0 mi Calm Calm - N/A   Clear
2:57 AM 41.0 °F 38.0 °F 18.0 °F 40% 29.91 in 10.0 mi WNW 4.6 mph - N/A   Clear
3:57 AM 39.9 °F - 19.0 °F 43% 29.91 in 10.0 mi Calm Calm - N/A   Clear
4:57 AM 37.0 °F - 19.0 °F 48% 29.92 in 10.0 mi Calm Calm - N/A   Clear
5:57 AM 35.6 °F 32.8 °F 21.2 °F 56% 30.13 in 10.0 mi WNW 3.5 mph - N/A   Clear
6:57 AM 45.0 °F 41.8 °F 23.0 °F 42% 29.93 in 10.0 mi WNW 5.8 mph - N/A   Clear
7:57 AM 55.9 °F - 23.0 °F 28% 29.91 in 10.0 mi WSW 11.5 mph - N/A   Clear
8:57 AM 57.9 °F - 21.9 °F 25% 29.91 in 10.0 mi WSW 10.4 mph 17.3 mph N/A   Clear
9:57 AM 61.0 °F - 23.0 °F 23% 29.92 in 10.0 mi West 8.1 mph 17.3 mph N/A   Clear
10:57 AM 63.0 °F - 21.0 °F 20% 29.92 in 10.0 mi WSW 9.2 mph 19.6 mph N/A   Clear
11:57 AM 64.0 °F - 19.9 °F 18% 29.92 in 10.0 mi SW 13.8 mph 20.7 mph N/A   Clear
12:57 PM 66.0 °F - 19.9 °F 17% 29.90 in 10.0 mi SW 18.4 mph 26.5 mph N/A   Clear
1:57 PM 66.9 °F - 19.9 °F 17% 29.92 in 10.0 mi SSW 20.7 mph 31.1 mph N/A   Clear
2:57 PM 66.0 °F - 19.9 °F 17% 29.91 in 10.0 mi SW 15.0 mph 26.5 mph N/A   Clear
3:57 PM 66.9 °F - 21.9 °F 18% 29.90 in 10.0 mi SSW 19.6 mph 27.6 mph N/A   Clear
4:57 PM 64.9 °F - 19.9 °F 18% 29.91 in 10.0 mi SW 21.9 mph 28.8 mph N/A   Clear
5:57 PM 64.0 °F - 19.0 °F 18% 29.91 in 10.0 mi SSW 16.1 mph 26.5 mph N/A   Clear
6:57 PM 60.1 °F - 19.9 °F 21% 29.89 in 10.0 mi SW 11.5 mph - N/A   Clear
7:57 PM 54.0 °F - 21.0 °F 28% 29.90 in 10.0 mi Calm Calm - N/A   Clear
8:57 PM 46.9 °F - 21.9 °F 37% 29.93 in 10.0 mi Calm Calm - N/A   Clear
9:57 PM 41.0 °F - 21.0 °F 45% 29.94 in 10.0 mi Calm Calm - N/A   Clear
10:57 PM 37.9 °F - 21.0 °F 51% 29.94 in 10.0 mi Calm Calm - N/A   Clear
11:57 PM 36.0 °F - 19.9 °F 52% 29.95 in 10.0 mi Calm Calm - N/A   Clear